Regional Weather Roundup
Issued by NWS Mobile, AL

Home | Current Version | Previous Version | Text Only | Print | Product List | Glossary On
Versions: 1 2 3 4 5 6 7 8 9 10 11 12 13 14 15 16 17 18 19 20 21 22 23 24 25 26 27 28 29 30 31 32 33 34 35 36 37 38 39 40 41 42 43 44 45 46 47 48
000
ASUS44 KMOB 262210
RWRMOB
REGIONAL WEATHER ROUNDUP
NATIONAL WEATHER SERVICE MOBILE AL
400 PM CST THU FEB 26 2015

NOTE: "FAIR" INDICATES FEW OR NO CLOUDS BELOW 12,000 FEET WITH NO
      SIGNIFICANT WEATHER AND/OR OBSTRUCTIONS TO VISIBILITY.

  * THESE STATIONS ARE PART OF THE UNIVERSITY OF SOUTH ALABAMA
    MESONET AND ARE NOT UNDER NWS OR FAA QUALITY CONTROL.

ALZ061>064-262300-
COASTAL ALABAMA

CITY           SKY/WX    TMP DP  RH WIND       PRES   REMARKS
MOBILE REG APT PTSUNNY   47  34  60 NW10      30.06S
BROOKLEY FIELD MOSUNNY   50  36  58 N13       30.08R
USA CAMPUS*      N/A     48  36  61 CALM      30.06R
DOG RIVER*     NOT AVBL


CITY           SKY/WX    TMP DP  RH WIND       PRES   REMARKS
MOUNT VERNON*    N/A     48  34  57 N7        30.08S
SARALAND*      NOT AVBL
BAY MINETTE*   NOT AVBL
LOXLEY*          N/A     43  37  81 VRB9      30.06R
ROBERTSDALE*     N/A     45  37  76 NE8       30.06R
FAIRHOPE*        N/A     46  36  66 VRB12     30.05S
ELBERTA*         N/A     45  36  70 N12       30.05R
FOLEY*         NOT AVBL
GRAND BAY*       N/A     48  36  61 N9        30.05R
DAUPHIN ISLND* NOT AVBL
BON SCOUR NWR* NOT AVBL
GULF SHORES    CLOUDY    45  36  70 N10       30.05R

$$

ALZ051>060-262300-
INTERIOR SOUTHWEST AND SOUTH CENTRAL ALABAMA

CITY           SKY/WX    TMP DP  RH WIND       PRES   REMARKS
GREENVILLE     MOSUNNY   45  32  61 N9        30.05R
EVERGREEN      PTSUNNY   46  35  65 N10       30.06R
CASTLEBERRY*   NOT AVBL
ATMORE*          N/A     43  36  75 N9        30.09R
DIXIE*           N/A     41  36  81 N5        30.03R
ANDALUSIA/OPP  CLOUDY    45  34  65 N9G18     30.06R
ANDALUSIA*       N/A     39  36  87 NW6       30.04R
FLORALA APT    CLOUDY    42  35  76 N7        30.07R
FLORALA*         N/A     41  36  81 NW5       30.02R

$$

FLZ001>006-262300-
WESTERN FLORIDA PANHANDLE

CITY           SKY/WX    TMP DP  RH WIND       PRES   REMARKS
PENSACOLA      CLOUDY    44  36  73 N13       30.05R
NAS PENSACOLA  CLOUDY    45  37  73 N10       30.05R
MILTON         CLOUDY    42  35  76 N13       30.06R
WHTNG S FIELD  CLOUDY    45  35  68 N13       30.06R


CITY           SKY/WX    TMP DP  RH WIND       PRES   REMARKS
WALNUT HILL*   NOT AVBL
JAY*             N/A     41  34  75 NW6       30.07R
DUKE FIELD     CLOUDY    43  36  77 N15       30.04R
CRESTVIEW      CLOUDY    43  36  76 N7        30.07R
VALPARAISO     CLOUDY    45  37  73 N13       30.04R
DESTIN         CLOUDY    46  37  71 N13       30.04R

$$

MSZ076-079-262300-
INTERIOR SOUTHEAST MISSISSIPPI

CITY           SKY/WX    TMP DP  RH WIND       PRES   REMARKS
LEAKESVILLE*     N/A     48  34  57 N5        30.09R
AGRICOLA*      NOT AVBL

$$

MARINE OBSERVATIONS

STATION/POSITION TIME  TEMP    WIND        PRES    WAVE
                       AIR SEA DIR/SP/G            HT/PER
                 (UTC) (F)     (DEG/KT/KT) (MB)    (FT/S)
PASCAGOULA       2200   47     350/ 10/ 13 1017.7R
PETIT BOIS ISLND 2200   46     350/ 13/ 17 1018.2R
GRAND BAY        2100   46     360/ 13     1018.0S
KATRINA CUT      2100   47     350/ 17     1018.0R
CEDAR POINT      2100   48     350/ 12     1017.6R
E DAUPHIN ISLAND 2154   46      10/ 16/ 18 1017.5R
MIDDLE BAY LIGHT 2100   46      10/ 19     1016.9R
USCG MOBILE BAY  2200   47 52   10/  9/ 15 1017.0R
STATE DOCKS      2200   47 49              1017.6R
MEAHER PARK      2100   45      10/  9     1018.3R
WEEKS BAY        2100   49                   N/A
FORT MORGAN      2200   45      30/ 19/ 22 1017.1R
12 S ORANGE BCH  2200   48 62  360/ 14/ 17 1016.6R   3/ 8
PENSACOLA BAY    2200   47 54   10/  8/ 11 1017.7R
64 S DAUPHIN ISL 2112   48 64   10/ 14/ 17 1017.7R   4/ 7
67 S FORT MORGAN 2100   49     360/ 14     1016.9R

$$

SELECTED LOCATIONS ACROSS THE REGION

CITY           SKY/WX    TMP DP  RH WIND       PRES   REMARKS
NEW ORLEANS    PTSUNNY   47  36  65 N13       30.10S
GULFPORT       SUNNY     49  33  54 N15       30.07R
PASCAGOULA AP  SUNNY     49  35  58 N10G20    30.06S
PASCAGOULA*    NOT AVBL
HATTIESBURG    SUNNY     50  31  48 NW10      30.11R
LAUREL         SUNNY     48  30  49 N13G18    30.12R
MERIDIAN       SUNNY     47  28  47 N16G23    30.12R
JACKSON        PTSUNNY   41  31  67 N15       30.18R
MONTGOMERY     MOSUNNY   43  32  65 NW9       30.09R
TROY           CLOUDY    43  34  70 N13       30.05R
KINSTON*       NOT AVBL
GENEVA*          N/A     43  36  75 N6        30.07R
ASHFORD*         N/A     39  36  87 NW6       30.04R
DOTHAN         CLOUDY    44  37  76 NW12      30.06R
PANAMA CITY    CLOUDY    46  38  73 NW13      30.01R

$$




USA.gov is the U.S. government's official web portal to all federal, state and local government web resources and services.